GOES 18

Last updated on Tue Oct 14 2025 00:02:22 GMT+0000 (Coordinated Universal Time)

1 51850U 22021A 25286.60307863 .00000084 00000+0 00000+0 0 9992 2 51850 0.0444 45.2924 0000784 219.3883 197.8594 1.00269825 4125
UTC large
Height (km)
Speed (km/s)
/
Latitude / Longitude
Inclination (degrees)
Orbital Period (minutes)
Azimuth
Elevation
Range (km)
Doppler Factor

Next 0 passes for location: London (51.5072 / 0.1276)

Sorry there are no passes over London.